Terug naar catalogus

STARLINK-35541

ActiefCommunicatieVLEO
NORAD 66235·PAYLOAD·🇺🇸 United States

Gelanceerd Oct 29, 2025 vanaf Cape Canaveral Space Force Station

Loading…

Volgende Passages (komende 24 uur)

TLE

VersSource: CelesTrak SupGP

Epoch: Sep 14, 2026, 22:58 UTC

1 66235C 25245B   26257.95743056 -.00011280  00000+0 -36275-3 0  2577
2 66235  53.1561 123.6960 0001358  83.8874 124.7151 15.31705732    13

Volg STARLINK-35541 in realtime met AllMySat

Download on the App Store